Location: Palombina Nuova
(43.6167°N, 13.4000°E)
Time: 06:11:53
(UTC+00:00)

NOSS 2-1 (C) - Pass Details

Date: 17 February 2020
Orbit: 450 x 1753 km, 63.3° (Epoch: 26 March)

Event Time Altitude Azimuth Distance (km) Brightness Sun altitude
Exits shadow 04:12:33 26° 351° (N) 951 4.4 -20.6°
Drops below altitude 10° 04:14:49 10° 21° (NNE) 1,711 6.1 -20.2°
Sets 04:17:18 0° 32° (NNE) 2,720 7.3 -19.8°
